TimeEDT,TemperatureF,Dew PointF,Humidity,Sea Level PressureIn,VisibilityMPH,Wind Direction,Wind SpeedMPH,Gust SpeedMPH,PrecipitationIn,Events,Conditions,WindDirDegrees,DateUTC
12:04 AM,73.4,69.8,88,29.74,3.0,Calm,Calm,-,0.01,Rain-Thunderstorm,Light Rain,0,2013-09-02 04:04:00
12:12 AM,71.6,69.8,94,29.76,5.0,SSW,6.9,-,0.02,Rain,Light Rain,200,2013-09-02 04:12:00
12:19 AM,71.6,69.8,94,29.75,6.0,Calm,Calm,-,0.02,Thunderstorm,Mostly Cloudy,0,2013-09-02 04:19:00
12:34 AM,71.6,68.0,88,29.76,4.0,SW,4.6,-,0.02,,Partly Cloudy,220,2013-09-02 04:34:00
12:53 AM,70.0,66.9,90,29.75,6.0,South,5.8,-,0.02,,Partly Cloudy,180,2013-09-02 04:53:00
1:53 AM,70.0,66.0,87,29.74,8.0,SW,6.9,-,N/A,,Mostly Cloudy,220,2013-09-02 05:53:00
2:53 AM,71.1,68.0,90,29.73,5.0,WSW,8.1,-,N/A,,Mostly Cloudy,250,2013-09-02 06:53:00
3:26 AM,71.6,68.0,88,29.74,4.0,West,8.1,-,N/A,,Overcast,280,2013-09-02 07:26:00
3:40 AM,71.6,68.0,88,29.75,4.0,West,6.9,-,N/A,,Overcast,270,2013-09-02 07:40:00
3:53 AM,70.0,66.9,90,29.74,4.0,West,6.9,-,N/A,,Mostly Cloudy,280,2013-09-02 07:53:00
4:50 AM,69.8,66.2,88,29.75,5.0,NW,9.2,-,N/A,,Mostly Cloudy,320,2013-09-02 08:50:00
4:53 AM,70.0,66.0,87,29.74,6.0,NNW,8.1,-,N/A,,Overcast,330,2013-09-02 08:53:00
5:21 AM,69.8,66.2,88,29.76,6.0,NW,6.9,-,N/A,,Overcast,320,2013-09-02 09:21:00
5:46 AM,69.8,64.4,83,29.77,6.0,NNW,5.8,-,N/A,,Mostly Cloudy,330,2013-09-02 09:46:00
5:53 AM,69.1,66.0,90,29.76,6.0,NNW,6.9,-,N/A,,Mostly Cloudy,330,2013-09-02 09:53:00
6:08 AM,69.8,64.4,83,29.78,7.0,NNW,6.9,-,N/A,,Overcast,330,2013-09-02 10:08:00
6:53 AM,66.9,63.0,87,29.79,10.0,NW,13.8,-,N/A,,Overcast,310,2013-09-02 10:53:00
7:13 AM,66.2,62.6,88,29.81,10.0,NW,10.4,-,N/A,,Overcast,310,2013-09-02 11:13:00
7:20 AM,64.4,60.8,88,29.82,10.0,WNW,9.2,-,N/A,,Overcast,300,2013-09-02 11:20:00
7:53 AM,64.9,61.0,87,29.82,10.0,NW,6.9,-,N/A,,Overcast,320,2013-09-02 11:53:00
8:19 AM,64.4,60.8,88,29.84,10.0,NW,6.9,-,N/A,,Overcast,310,2013-09-02 12:19:00
8:53 AM,64.9,60.1,84,29.83,10.0,NW,8.1,-,N/A,,Overcast,310,2013-09-02 12:53:00
9:01 AM,64.4,59.0,83,29.85,10.0,NW,6.9,-,N/A,,Overcast,310,2013-09-02 13:01:00
9:15 AM,64.4,59.0,83,29.85,10.0,North,9.2,-,N/A,,Overcast,350,2013-09-02 13:15:00
9:53 AM,64.0,57.0,78,29.85,10.0,NW,12.7,-,N/A,,Overcast,320,2013-09-02 13:53:00
10:28 AM,66.2,57.2,73,29.86,10.0,NW,10.4,-,N/A,,Scattered Clouds,320,2013-09-02 14:28:00
10:30 AM,66.2,57.2,73,29.86,10.0,NNW,9.2,-,N/A,,Mostly Cloudy,340,2013-09-02 14:30:00
10:53 AM,69.1,57.9,68,29.86,10.0,NW,10.4,-,N/A,,Mostly Cloudy,320,2013-09-02 14:53:00
11:53 AM,69.1,57.0,65,29.86,10.0,WNW,11.5,-,N/A,,Mostly Cloudy,290,2013-09-02 15:53:00
12:53 PM,72.0,59.0,64,29.85,10.0,NW,13.8,-,N/A,,Mostly Cloudy,320,2013-09-02 16:53:00
1:28 PM,73.4,55.4,53,29.86,10.0,WNW,11.5,21.9,N/A,,Scattered Clouds,300,2013-09-02 17:28:00
1:53 PM,72.0,55.9,57,29.85,10.0,WNW,13.8,20.7,N/A,,Mostly Cloudy,290,2013-09-02 17:53:00
2:53 PM,72.0,57.0,59,29.85,10.0,WNW,17.3,21.9,N/A,,Overcast,290,2013-09-02 18:53:00
3:53 PM,72.0,55.9,57,29.84,10.0,WNW,17.3,-,N/A,,Overcast,290,2013-09-02 19:53:00
4:53 PM,71.1,55.0,57,29.85,10.0,WNW,15.0,24.2,N/A,,Overcast,300,2013-09-02 20:53:00
5:53 PM,68.0,53.1,59,29.86,10.0,WNW,13.8,-,N/A,,Overcast,300,2013-09-02 21:53:00
6:53 PM,66.0,52.0,60,29.87,10.0,NW,19.6,24.2,N/A,,Overcast,320,2013-09-02 22:53:00
7:53 PM,64.0,51.1,63,29.88,10.0,NW,10.4,-,N/A,,Overcast,310,2013-09-02 23:53:00
8:53 PM,63.0,52.0,67,29.90,10.0,WNW,11.5,-,N/A,,Overcast,290,2013-09-03 00:53:00
9:53 PM,61.0,53.1,75,29.92,9.0,NW,11.5,-,N/A,,Overcast,320,2013-09-03 01:53:00
10:00 PM,60.8,53.6,77,29.92,10.0,NW,11.5,-,N/A,,Overcast,310,2013-09-03 02:00:00
10:53 PM,59.0,53.1,81,29.93,10.0,WNW,6.9,-,0.00,,Mostly Cloudy,290,2013-09-03 02:53:00
11:01 PM,59.0,53.6,82,29.94,10.0,WNW,5.8,-,N/A,,Mostly Cloudy,290,2013-09-03 03:01:00
11:53 PM,57.9,53.1,84,29.94,8.0,NNW,9.2,-,N/A,,Overcast,330,2013-09-03 03:53:00